Time,TemperatureF,DewpointF,PressureIn,WindDirection,WindDirectionDegrees,WindSpeedMPH,WindSpeedGustMPH,Humidity,HourlyPrecipIn,Conditions,Clouds,dailyrainin,SoftwareType,DateUTC
2013-02-17 00:02:00,-7.6,99.9,30.26,ENE,68,0.0,0.0,84,0.00,,,0.00,HR-IXPWINDi_r2_v1.2.,2013-02-17 06:02:00,
2013-02-17 00:07:00,-7.7,99.9,30.26,ENE,67,0.0,0.0,84,0.00,,,0.00,HR-IXPWINDi_r2_v1.2.,2013-02-17 06:07:00,
2013-02-17 00:12:00,-7.9,99.9,30.26,ENE,67,0.0,0.0,84,0.00,,,0.00,HR-IXPWINDi_r2_v1.2.,2013-02-17 06:12:00,
2013-02-17 00:17:00,-8.0,99.9,30.26,ENE,68,0.0,0.0,84,0.00,,,0.00,HR-IXPWINDi_r2_v1.2.,2013-02-17 06:17:00,
2013-02-17 00:22:00,-8.2,99.9,30.26,ENE,67,0.0,0.0,84,0.00,,,0.00,HR-IXPWINDi_r2_v1.2.,2013-02-17 06:22:00,
2013-02-17 00:28:00,-8.4,99.9,30.26,ENE,67,0.0,0.0,84,0.00,,,0.00,HR-IXPWINDi_r2_v1.2.,2013-02-17 06:28:00,
2013-02-17 00:33:00,-8.5,99.9,30.26,ENE,68,0.0,0.0,84,0.00,,,0.00,HR-IXPWINDi_r2_v1.2.,2013-02-17 06:33:00,
2013-02-17 00:38:00,-8.7,99.9,30.26,ENE,67,0.0,0.0,83,0.00,,,0.00,HR-IXPWINDi_r2_v1.2.,2013-02-17 06:38:00,
2013-02-17 00:43:00,-8.9,99.9,30.26,ENE,67,0.0,0.0,83,0.00,,,0.00,HR-IXPWINDi_r2_v1.2.,2013-02-17 06:43:00,
2013-02-17 00:48:00,-9.0,99.9,30.26,ENE,68,0.0,0.0,83,0.00,,,0.00,HR-IXPWINDi_r2_v1.2.,2013-02-17 06:48:00,
2013-02-17 00:53:00,-9.2,99.9,30.27,ENE,67,0.0,0.0,84,0.00,,,0.00,HR-IXPWINDi_r2_v1.2.,2013-02-17 06:53:00,
2013-02-17 00:59:00,-9.3,99.9,30.27,ENE,67,0.0,0.0,96,0.00,,,0.00,HR-IXPWINDi_r2_v1.2.,2013-02-17 06:59:00,
2013-02-17 01:04:00,-9.6,99.9,30.27,ENE,68,0.0,0.0,83,0.00,,,0.00,HR-IXPWINDi_r2_v1.2.,2013-02-17 07:04:00,
2013-02-17 01:09:00,-9.9,99.9,30.27,ENE,67,0.0,0.0,83,0.00,,,0.00,HR-IXPWINDi_r2_v1.2.,2013-02-17 07:09:00,
2013-02-17 01:14:00,-10.2,99.9,30.27,ENE,67,0.0,0.0,82,0.00,,,0.00,HR-IXPWINDi_r2_v1.2.,2013-02-17 07:14:00,
2013-02-17 01:19:00,-10.4,99.9,30.27,ENE,67,0.0,0.0,83,0.00,,,0.00,HR-IXPWINDi_r2_v1.2.,2013-02-17 07:19:00,
2013-02-17 01:24:00,-10.6,99.9,30.27,ENE,67,0.0,0.0,83,0.00,,,0.00,HR-IXPWINDi_r2_v1.2.,2013-02-17 07:24:00,
2013-02-17 01:30:00,-10.7,99.9,30.27,ENE,68,0.0,0.0,83,0.00,,,0.00,HR-IXPWINDi_r2_v1.2.,2013-02-17 07:30:00,
2013-02-17 01:35:00,-10.8,99.9,30.27,ENE,67,0.0,0.0,83,0.00,,,0.00,HR-IXPWINDi_r2_v1.2.,2013-02-17 07:35:00,
2013-02-17 01:40:00,-11.0,99.9,30.27,ENE,68,0.0,0.0,83,0.00,,,0.00,HR-IXPWINDi_r2_v1.2.,2013-02-17 07:40:00,
2013-02-17 01:45:00,-11.1,99.9,30.27,ENE,68,0.0,0.0,83,0.00,,,0.00,HR-IXPWINDi_r2_v1.2.,2013-02-17 07:45:00,
2013-02-17 01:51:00,-10.9,99.9,30.27,ENE,67,0.0,0.0,84,0.00,,,0.00,HR-IXPWINDi_r2_v1.2.,2013-02-17 07:51:00,
2013-02-17 01:56:00,-10.8,99.9,30.27,ENE,68,0.0,0.0,84,0.00,,,0.00,HR-IXPWINDi_r2_v1.2.,2013-02-17 07:56:00,
2013-02-17 02:01:00,-11.1,99.9,30.27,ENE,67,0.0,0.0,83,0.00,,,0.00,HR-IXPWINDi_r2_v1.2.,2013-02-17 08:01:00,
2013-02-17 02:06:00,-11.2,99.9,30.28,ENE,67,0.0,0.0,83,0.00,,,0.00,HR-IXPWINDi_r2_v1.2.,2013-02-17 08:06:00,
2013-02-17 02:12:00,-11.3,99.9,30.27,ENE,68,0.0,0.0,84,0.00,,,0.00,HR-IXPWINDi_r2_v1.2.,2013-02-17 08:12:00,
2013-02-17 02:17:00,-11.5,99.9,30.27,ENE,67,0.0,0.0,83,0.00,,,0.00,HR-IXPWINDi_r2_v1.2.,2013-02-17 08:17:00,
2013-02-17 02:22:00,-11.5,99.9,30.27,ENE,68,0.0,0.0,84,0.00,,,0.00,HR-IXPWINDi_r2_v1.2.,2013-02-17 08:22:00,
2013-02-17 02:27:00,-11.6,99.9,30.27,ENE,68,0.0,0.0,84,0.00,,,0.00,HR-IXPWINDi_r2_v1.2.,2013-02-17 08:27:00,
2013-02-17 02:32:00,-11.8,99.9,30.27,ENE,68,0.0,0.0,83,0.00,,,0.00,HR-IXPWINDi_r2_v1.2.,2013-02-17 08:32:00,
2013-02-17 02:37:00,-12.1,99.9,30.27,ENE,67,0.0,0.0,83,0.00,,,0.00,HR-IXPWINDi_r2_v1.2.,2013-02-17 08:37:00,
2013-02-17 02:42:00,-12.3,99.9,30.27,ENE,68,0.0,0.0,83,0.00,,,0.00,HR-IXPWINDi_r2_v1.2.,2013-02-17 08:42:00,
2013-02-17 02:47:00,-12.5,99.9,30.27,ENE,67,0.0,0.0,82,0.00,,,0.00,HR-IXPWINDi_r2_v1.2.,2013-02-17 08:47:00,
2013-02-17 02:52:00,-12.8,99.9,30.27,ENE,67,0.0,0.0,81,0.00,,,0.00,HR-IXPWINDi_r2_v1.2.,2013-02-17 08:52:00,
2013-02-17 02:57:00,-13.0,99.9,30.27,ENE,67,0.0,0.0,82,0.00,,,0.00,HR-IXPWINDi_r2_v1.2.,2013-02-17 08:57:00,
2013-02-17 03:03:00,-13.2,99.9,30.27,ENE,67,0.0,0.0,82,0.00,,,0.00,HR-IXPWINDi_r2_v1.2.,2013-02-17 09:03:00,
2013-02-17 03:08:00,-13.4,99.9,30.27,ENE,68,0.0,0.0,82,0.00,,,0.00,HR-IXPWINDi_r2_v1.2.,2013-02-17 09:08:00,
2013-02-17 03:13:00,-13.5,99.9,30.27,ENE,67,0.0,0.0,82,0.00,,,0.00,HR-IXPWINDi_r2_v1.2.,2013-02-17 09:13:00,
2013-02-17 03:18:00,-13.4,99.9,30.27,ENE,68,0.0,0.0,84,0.00,,,0.00,HR-IXPWINDi_r2_v1.2.,2013-02-17 09:18:00,
2013-02-17 03:23:00,-13.4,99.9,30.27,ENE,68,0.0,0.0,83,0.00,,,0.00,HR-IXPWINDi_r2_v1.2.,2013-02-17 09:23:00,
2013-02-17 03:29:00,-13.4,99.9,30.27,ENE,67,0.0,0.0,84,0.00,,,0.00,HR-IXPWINDi_r2_v1.2.,2013-02-17 09:29:00,
2013-02-17 03:34:00,-13.5,99.9,30.27,ENE,68,0.0,0.0,84,0.00,,,0.00,HR-IXPWINDi_r2_v1.2.,2013-02-17 09:34:00,
2013-02-17 03:39:00,-13.4,99.9,30.27,ENE,67,0.0,0.0,85,0.00,,,0.00,HR-IXPWINDi_r2_v1.2.,2013-02-17 09:39:00,
2013-02-17 03:44:00,-13.4,99.9,30.27,ENE,67,0.0,0.0,84,0.00,,,0.00,HR-IXPWINDi_r2_v1.2.,2013-02-17 09:44:00,
2013-02-17 03:50:00,-13.6,99.9,30.27,ENE,67,0.0,0.0,83,0.00,,,0.00,HR-IXPWINDi_r2_v1.2.,2013-02-17 09:50:00,
2013-02-17 03:55:00,-13.7,99.9,30.27,ENE,67,0.0,0.0,83,0.00,,,0.00,HR-IXPWINDi_r2_v1.2.,2013-02-17 09:55:00,
2013-02-17 04:00:00,-13.7,99.9,30.27,ENE,67,0.0,0.0,84,0.00,,,0.00,HR-IXPWINDi_r2_v1.2.,2013-02-17 10:00:00,
2013-02-17 04:05:00,-13.7,99.9,30.27,ENE,67,0.0,1.0,84,0.00,,,0.00,HR-IXPWINDi_r2_v1.2.,2013-02-17 10:05:00,
2013-02-17 04:10:00,-13.9,99.9,30.27,ENE,68,0.0,1.0,83,0.00,,,0.00,HR-IXPWINDi_r2_v1.2.,2013-02-17 10:10:00,
2013-02-17 04:15:00,-14.2,99.9,30.27,ENE,67,0.0,0.0,82,0.00,,,0.00,HR-IXPWINDi_r2_v1.2.,2013-02-17 10:15:00,
2013-02-17 04:21:00,-14.3,99.9,30.27,ENE,67,0.0,0.0,83,0.00,,,0.00,HR-IXPWINDi_r2_v1.2.,2013-02-17 10:21:00,
2013-02-17 04:26:00,-14.3,99.9,30.26,ENE,68,0.0,0.0,83,0.00,,,0.00,HR-IXPWINDi_r2_v1.2.,2013-02-17 10:26:00,
2013-02-17 04:31:00,-14.4,99.9,30.26,ENE,68,0.0,0.0,82,0.00,,,0.00,HR-IXPWINDi_r2_v1.2.,2013-02-17 10:31:00,
2013-02-17 04:36:00,-14.7,99.9,30.26,ENE,68,0.0,0.0,82,0.00,,,0.00,HR-IXPWINDi_r2_v1.2.,2013-02-17 10:36:00,
2013-02-17 04:41:00,-14.9,99.9,30.26,ENE,68,0.0,0.0,82,0.00,,,0.00,HR-IXPWINDi_r2_v1.2.,2013-02-17 10:41:00,
2013-02-17 04:46:00,-15.2,99.9,30.26,ENE,67,0.0,0.0,82,0.00,,,0.00,HR-IXPWINDi_r2_v1.2.,2013-02-17 10:46:00,
2013-02-17 04:52:00,-15.3,99.9,30.26,ENE,68,0.0,0.0,82,0.00,,,0.00,HR-IXPWINDi_r2_v1.2.,2013-02-17 10:52:00,
2013-02-17 04:57:00,-15.5,99.9,30.26,ENE,67,0.0,0.0,81,0.00,,,0.00,HR-IXPWINDi_r2_v1.2.,2013-02-17 10:57:00,
2013-02-17 05:02:00,-15.6,99.9,30.26,ENE,68,0.0,0.0,82,0.00,,,0.00,HR-IXPWINDi_r2_v1.2.,2013-02-17 11:02:00,
2013-02-17 05:07:00,-15.7,99.9,30.26,ENE,68,0.0,0.0,82,0.00,,,0.00,HR-IXPWINDi_r2_v1.2.,2013-02-17 11:07:00,
2013-02-17 05:12:00,-15.9,99.9,30.26,ENE,67,0.0,0.0,82,0.00,,,0.00,HR-IXPWINDi_r2_v1.2.,2013-02-17 11:12:00,
2013-02-17 05:17:00,-16.0,99.9,30.26,ENE,68,0.0,0.0,82,0.00,,,0.00,HR-IXPWINDi_r2_v1.2.,2013-02-17 11:17:00,
2013-02-17 05:22:00,-16.1,99.9,30.26,ENE,68,0.0,0.0,82,0.00,,,0.00,HR-IXPWINDi_r2_v1.2.,2013-02-17 11:22:00,
2013-02-17 05:27:00,-16.1,99.9,30.27,ENE,67,0.0,0.0,82,0.00,,,0.00,HR-IXPWINDi_r2_v1.2.,2013-02-17 11:27:00,
2013-02-17 05:33:00,-16.1,99.9,30.26,ENE,68,0.0,0.0,82,0.00,,,0.00,HR-IXPWINDi_r2_v1.2.,2013-02-17 11:33:00,
2013-02-17 05:38:00,-15.8,99.9,30.26,ENE,67,0.0,0.0,84,0.00,,,0.00,HR-IXPWINDi_r2_v1.2.,2013-02-17 11:38:00,
2013-02-17 05:43:00,-15.8,99.9,30.26,ENE,68,0.0,0.0,83,0.00,,,0.00,HR-IXPWINDi_r2_v1.2.,2013-02-17 11:43:00,
2013-02-17 05:48:00,-15.9,99.9,30.26,ENE,68,0.0,1.0,82,0.00,,,0.00,HR-IXPWINDi_r2_v1.2.,2013-02-17 11:48:00,
2013-02-17 05:53:00,-16.1,99.9,30.27,ENE,68,0.0,1.0,82,0.00,,,0.00,HR-IXPWINDi_r2_v1.2.,2013-02-17 11:53:00,
2013-02-17 05:59:00,-16.2,99.9,30.26,ENE,68,0.0,0.0,82,0.00,,,0.00,HR-IXPWINDi_r2_v1.2.,2013-02-17 11:59:00,
2013-02-17 06:04:00,-16.3,99.9,30.26,ENE,68,0.0,0.0,82,0.00,,,0.00,HR-IXPWINDi_r2_v1.2.,2013-02-17 12:04:00,
2013-02-17 06:09:00,-16.3,99.9,30.26,ENE,68,0.0,0.0,82,0.00,,,0.00,HR-IXPWINDi_r2_v1.2.,2013-02-17 12:09:00,
2013-02-17 06:15:00,-16.3,99.9,30.26,ENE,68,0.0,0.0,82,0.00,,,0.00,HR-IXPWINDi_r2_v1.2.,2013-02-17 12:15:00,
2013-02-17 06:20:00,-16.4,99.9,30.26,ENE,68,0.0,0.0,82,0.00,,,0.00,HR-IXPWINDi_r2_v1.2.,2013-02-17 12:20:00,
2013-02-17 06:25:00,-16.4,99.9,30.26,ENE,68,0.0,0.0,82,0.00,,,0.00,HR-IXPWINDi_r2_v1.2.,2013-02-17 12:25:00,
2013-02-17 06:30:00,-16.5,99.9,30.26,ENE,68,0.0,0.0,82,0.00,,,0.00,HR-IXPWINDi_r2_v1.2.,2013-02-17 12:30:00,
2013-02-17 06:35:00,-16.7,99.9,30.26,ENE,68,0.0,0.0,82,0.00,,,0.00,HR-IXPWINDi_r2_v1.2.,2013-02-17 12:35:00,
2013-02-17 06:40:00,-16.8,99.9,30.26,ENE,67,0.0,0.0,81,0.00,,,0.00,HR-IXPWINDi_r2_v1.2.,2013-02-17 12:40:00,
2013-02-17 06:45:00,-16.9,99.9,30.26,ENE,68,0.0,0.0,81,0.00,,,0.00,HR-IXPWINDi_r2_v1.2.,2013-02-17 12:45:00,
2013-02-17 06:50:00,-17.1,99.9,30.26,ENE,67,0.0,0.0,81,0.00,,,0.00,HR-IXPWINDi_r2_v1.2.,2013-02-17 12:50:00,
2013-02-17 06:56:00,-17.2,99.9,30.27,ENE,67,0.0,0.0,81,0.00,,,0.00,HR-IXPWINDi_r2_v1.2.,2013-02-17 12:56:00,
2013-02-17 07:01:00,-17.3,99.9,30.27,ENE,68,0.0,0.0,82,0.00,,,0.00,HR-IXPWINDi_r2_v1.2.,2013-02-17 13:01:00,
2013-02-17 07:06:00,-17.2,99.9,30.27,ENE,68,0.0,0.0,82,0.00,,,0.00,HR-IXPWINDi_r2_v1.2.,2013-02-17 13:06:00,
2013-02-17 07:11:00,-17.2,99.9,30.27,ENE,67,0.0,0.0,82,0.00,,,0.00,HR-IXPWINDi_r2_v1.2.,2013-02-17 13:11:00,
2013-02-17 07:16:00,-16.9,99.9,30.27,ENE,68,0.0,0.0,83,0.00,,,0.00,HR-IXPWINDi_r2_v1.2.,2013-02-17 13:16:00,
2013-02-17 07:21:00,-16.3,99.9,30.27,ENE,68,0.0,0.0,84,0.00,,,0.00,HR-IXPWINDi_r2_v1.2.,2013-02-17 13:21:00,
2013-02-17 07:27:00,-15.3,99.9,30.27,ENE,67,0.0,0.0,86,0.00,,,0.00,HR-IXPWINDi_r2_v1.2.,2013-02-17 13:27:00,
2013-02-17 07:32:00,-14.6,99.9,30.27,ENE,68,0.0,0.0,86,0.00,,,0.00,HR-IXPWINDi_r2_v1.2.,2013-02-17 13:32:00,
2013-02-17 07:37:00,-14.1,99.9,30.27,ENE,67,0.0,0.0,85,0.00,,,0.00,HR-IXPWINDi_r2_v1.2.,2013-02-17 13:37:00,
2013-02-17 07:42:00,-13.7,99.9,30.28,ENE,67,0.0,0.0,84,0.00,,,0.00,HR-IXPWINDi_r2_v1.2.,2013-02-17 13:42:00,
2013-02-17 07:47:00,-13.4,99.9,30.27,ENE,68,0.0,1.0,83,0.00,,,0.00,HR-IXPWINDi_r2_v1.2.,2013-02-17 13:47:00,
2013-02-17 07:52:00,-13.1,99.9,30.27,ENE,67,0.0,1.0,83,0.00,,,0.00,HR-IXPWINDi_r2_v1.2.,2013-02-17 13:52:00,
2013-02-17 07:58:00,-12.9,99.9,30.27,ENE,67,0.0,0.0,83,0.00,,,0.00,HR-IXPWINDi_r2_v1.2.,2013-02-17 13:58:00,
2013-02-17 08:03:00,-12.5,99.9,30.27,ENE,68,0.0,0.0,82,0.00,,,0.00,HR-IXPWINDi_r2_v1.2.,2013-02-17 14:03:00,
2013-02-17 08:08:00,-11.7,99.9,30.27,ENE,68,0.0,0.0,84,0.00,,,0.00,HR-IXPWINDi_r2_v1.2.,2013-02-17 14:08:00,
2013-02-17 08:13:00,-10.6,99.9,30.27,ENE,67,0.0,1.0,85,0.00,,,0.00,HR-IXPWINDi_r2_v1.2.,2013-02-17 14:13:00,
2013-02-17 08:18:00,-9.8,99.9,30.27,ENE,67,0.0,1.0,84,0.00,,,0.00,HR-IXPWINDi_r2_v1.2.,2013-02-17 14:18:00,
2013-02-17 08:23:00,-9.1,99.9,30.27,ENE,68,0.0,0.0,84,0.00,,,0.00,HR-IXPWINDi_r2_v1.2.,2013-02-17 14:23:00,
2013-02-17 08:29:00,-8.3,99.9,30.27,ENE,68,0.0,0.0,84,0.00,,,0.00,HR-IXPWINDi_r2_v1.2.,2013-02-17 14:29:00,
2013-02-17 08:34:00,-7.6,99.9,30.27,ENE,67,0.0,0.0,82,0.00,,,0.00,HR-IXPWINDi_r2_v1.2.,2013-02-17 14:34:00,
2013-02-17 08:39:00,-7.3,99.9,30.27,ENE,67,0.0,0.0,80,0.00,,,0.00,HR-IXPWINDi_r2_v1.2.,2013-02-17 14:39:00,
2013-02-17 08:45:00,-6.3,99.9,30.26,ENE,68,0.0,0.0,81,0.00,,,0.00,HR-IXPWINDi_r2_v1.2.,2013-02-17 14:45:00,
2013-02-17 08:50:00,-5.3,99.9,30.27,ENE,68,0.0,0.0,79,0.00,,,0.00,HR-IXPWINDi_r2_v1.2.,2013-02-17 14:50:00,
2013-02-17 08:55:00,-4.5,99.9,30.27,ENE,67,0.0,0.0,76,0.00,,,0.00,HR-IXPWINDi_r2_v1.2.,2013-02-17 14:55:00,
2013-02-17 09:00:00,-3.2,99.9,30.27,ENE,67,0.0,0.0,76,0.00,,,0.00,HR-IXPWINDi_r2_v1.2.,2013-02-17 15:00:00,
2013-02-17 09:05:00,-2.3,99.9,30.27,ENE,67,0.0,0.0,73,0.00,,,0.00,HR-IXPWINDi_r2_v1.2.,2013-02-17 15:05:00,
2013-02-17 09:10:00,-1.7,44.3,30.27,ENE,68,0.0,0.0,71,0.00,,,0.00,HR-IXPWINDi_r2_v1.2.,2013-02-17 15:10:00,
2013-02-17 09:15:00,-1.6,-48.3,30.27,ENE,67,0.0,0.0,70,0.00,,,0.00,HR-IXPWINDi_r2_v1.2.,2013-02-17 15:15:00,
2013-02-17 09:20:00,-0.9,99.9,30.27,ENE,68,0.0,0.0,74,0.00,,,0.00,HR-IXPWINDi_r2_v1.2.,2013-02-17 15:20:00,
2013-02-17 09:25:00,0.5,-3.9,30.27,ENE,67,1.0,1.0,80,0.00,,,0.00,HR-IXPWINDi_r2_v1.2.,2013-02-17 15:25:00,
2013-02-17 09:31:00,2.1,-1.8,30.27,ENE,68,1.0,2.0,82,0.00,,,0.00,HR-IXPWINDi_r2_v1.2.,2013-02-17 15:31:00,
2013-02-17 09:36:00,3.1,-1.6,30.27,ENE,68,1.0,2.0,79,0.00,,,0.00,HR-IXPWINDi_r2_v1.2.,2013-02-17 15:36:00,
2013-02-17 09:41:00,3.1,-1.9,30.27,ENE,68,1.0,2.0,78,0.00,,,0.00,HR-IXPWINDi_r2_v1.2.,2013-02-17 15:41:00,
2013-02-17 09:46:00,3.0,-2.8,30.27,ENE,67,0.0,2.0,75,0.00,,,0.00,HR-IXPWINDi_r2_v1.2.,2013-02-17 15:46:00,
2013-02-17 09:51:00,3.3,-2.0,30.26,ENE,67,0.0,2.0,77,0.00,,,0.00,HR-IXPWINDi_r2_v1.2.,2013-02-17 15:51:00,
2013-02-17 09:56:00,4.6,-0.2,30.27,ENE,68,0.0,1.0,79,0.00,,,0.00,HR-IXPWINDi_r2_v1.2.,2013-02-17 15:56:00,
2013-02-17 10:02:00,5.9,0.9,30.27,ENE,68,0.0,0.0,79,0.00,,,0.00,HR-IXPWINDi_r2_v1.2.,2013-02-17 16:02:00,
2013-02-17 10:07:00,7.0,1.4,30.27,ENE,68,0.0,1.0,77,0.00,,,0.00,HR-IXPWINDi_r2_v1.2.,2013-02-17 16:07:00,
2013-02-17 10:12:00,8.3,3.0,30.27,ENE,68,0.0,1.0,78,0.00,,,0.00,HR-IXPWINDi_r2_v1.2.,2013-02-17 16:12:00,
2013-02-17 10:17:00,10.0,3.7,30.26,ENE,68,0.0,2.0,75,0.00,,,0.00,HR-IXPWINDi_r2_v1.2.,2013-02-17 16:17:00,
2013-02-17 10:23:00,10.4,3.0,30.26,ESE,117,2.0,4.0,71,0.00,,,0.00,HR-IXPWINDi_r2_v1.2.,2013-02-17 16:23:00,
2013-02-17 10:28:00,10.8,3.6,30.26,ESE,117,0.0,4.0,72,0.00,,,0.00,HR-IXPWINDi_r2_v1.2.,2013-02-17 16:28:00,
2013-02-17 10:33:00,11.5,4.0,30.25,SE,132,1.0,4.0,71,0.00,,,0.00,HR-IXPWINDi_r2_v1.2.,2013-02-17 16:33:00,
2013-02-17 10:38:00,12.5,4.7,30.25,SE,132,0.0,4.0,70,0.00,,,0.00,HR-IXPWINDi_r2_v1.2.,2013-02-17 16:38:00,
2013-02-17 10:43:00,13.6,5.1,30.25,SE,132,0.0,2.0,68,0.00,,,0.00,HR-IXPWINDi_r2_v1.2.,2013-02-17 16:43:00,
2013-02-17 10:49:00,14.6,5.7,30.25,SE,132,1.0,1.0,67,0.00,,,0.00,HR-IXPWINDi_r2_v1.2.,2013-02-17 16:49:00,
2013-02-17 10:54:00,15.2,5.6,30.25,SE,132,0.0,2.0,65,0.00,,,0.00,HR-IXPWINDi_r2_v1.2.,2013-02-17 16:54:00,
2013-02-17 10:59:00,15.2,5.3,30.24,SSE,155,1.0,2.0,64,0.00,,,0.00,HR-IXPWINDi_r2_v1.2.,2013-02-17 16:59:00,
2013-02-17 11:28:00,17.9,7.1,30.23,SSE,155,1.0,1.0,62,0.00,,,0.00,HR-IXPWINDi_r2_v1.2.,2013-02-17 17:28:00,
2013-02-17 11:33:00,17.8,7.1,30.23,SSE,155,1.0,1.0,62,0.00,,,0.00,HR-IXPWINDi_r2_v1.2.,2013-02-17 17:33:00,
2013-02-17 11:38:00,17.6,6.9,30.23,South,177,0.0,2.0,62,0.00,,,0.00,HR-IXPWINDi_r2_v1.2.,2013-02-17 17:38:00,
2013-02-17 11:43:00,17.9,6.8,30.23,South,170,2.0,2.0,61,0.00,,,0.00,HR-IXPWINDi_r2_v1.2.,2013-02-17 17:43:00,
2013-02-17 11:48:00,17.9,7.1,30.23,SSW,192,0.0,2.0,62,0.00,,,0.00,HR-IXPWINDi_r2_v1.2.,2013-02-17 17:48:00,
2013-02-17 11:53:00,18.1,7.0,30.22,SSW,192,0.0,2.0,61,0.00,,,0.00,HR-IXPWINDi_r2_v1.2.,2013-02-17 17:53:00,
2013-02-17 11:58:00,18.3,7.5,30.22,SSW,192,1.0,2.0,62,0.00,,,0.00,HR-IXPWINDi_r2_v1.2.,2013-02-17 17:58:00,
2013-02-17 12:03:00,18.4,8.0,30.22,SSW,192,0.0,2.0,63,0.00,,,0.00,HR-IXPWINDi_r2_v1.2.,2013-02-17 18:03:00,
2013-02-17 12:09:00,18.8,7.6,30.22,South,180,1.0,2.0,61,0.00,,,0.00,HR-IXPWINDi_r2_v1.2.,2013-02-17 18:09:00,
2013-02-17 12:14:00,19.2,8.4,30.21,South,180,1.0,2.0,62,0.00,,,0.00,HR-IXPWINDi_r2_v1.2.,2013-02-17 18:14:00,
2013-02-17 12:19:00,18.9,8.1,30.21,South,180,1.0,2.0,62,0.00,,,0.00,HR-IXPWINDi_r2_v1.2.,2013-02-17 18:19:00,
2013-02-17 12:25:00,18.7,7.9,30.20,South,180,1.0,2.0,62,0.00,,,0.00,HR-IXPWINDi_r2_v1.2.,2013-02-17 18:25:00,
2013-02-17 12:30:00,18.9,8.1,30.20,South,180,1.0,2.0,62,0.00,,,0.00,HR-IXPWINDi_r2_v1.2.,2013-02-17 18:30:00,
2013-02-17 12:35:00,19.0,7.8,30.20,South,180,0.0,1.0,61,0.00,,,0.00,HR-IXPWINDi_r2_v1.2.,2013-02-17 18:35:00,
2013-02-17 12:40:00,19.0,7.8,30.19,South,180,1.0,2.0,61,0.00,,,0.00,HR-IXPWINDi_r2_v1.2.,2013-02-17 18:40:00,
2013-02-17 12:45:00,19.1,7.9,30.19,SSE,157,0.0,2.0,61,0.00,,,0.00,HR-IXPWINDi_r2_v1.2.,2013-02-17 18:45:00,
2013-02-17 12:50:00,19.1,7.2,30.19,SSE,157,1.0,2.0,59,0.00,,,0.00,HR-IXPWINDi_r2_v1.2.,2013-02-17 18:50:00,
2013-02-17 12:56:00,19.4,7.5,30.19,SSE,157,0.0,2.0,59,0.00,,,0.00,HR-IXPWINDi_r2_v1.2.,2013-02-17 18:56:00,
2013-02-17 13:01:00,19.2,6.1,30.19,SSE,161,4.0,8.0,56,0.00,,,0.00,HR-IXPWINDi_r2_v1.2.,2013-02-17 19:01:00,
2013-02-17 13:06:00,18.9,5.9,30.18,SSE,159,1.0,8.0,56,0.00,,,0.00,HR-IXPWINDi_r2_v1.2.,2013-02-17 19:06:00,
2013-02-17 13:11:00,18.8,5.4,30.18,SSE,147,6.0,9.0,55,0.00,,,0.00,HR-IXPWINDi_r2_v1.2.,2013-02-17 19:11:00,
2013-02-17 13:17:00,18.9,6.2,30.18,SSE,163,1.0,9.0,57,0.00,,,0.00,HR-IXPWINDi_r2_v1.2.,2013-02-17 19:17:00,
2013-02-17 13:22:00,19.1,7.2,30.17,SSE,153,4.0,8.0,59,0.00,,,0.00,HR-IXPWINDi_r2_v1.2.,2013-02-17 19:22:00,
2013-02-17 13:27:00,18.6,6.3,30.17,SE,146,6.0,8.0,58,0.00,,,0.00,HR-IXPWINDi_r2_v1.2.,2013-02-17 19:27:00,
2013-02-17 13:32:00,18.2,5.6,30.17,SSE,160,2.0,8.0,57,0.00,,,0.00,HR-IXPWINDi_r2_v1.2.,2013-02-17 19:32:00,
2013-02-17 13:37:00,18.4,6.9,30.17,SSE,166,1.0,8.0,60,0.00,,,0.00,HR-IXPWINDi_r2_v1.2.,2013-02-17 19:37:00,
2013-02-17 13:42:00,18.4,6.2,30.17,South,176,1.0,8.0,58,0.00,,,0.00,HR-IXPWINDi_r2_v1.2.,2013-02-17 19:42:00,
2013-02-17 13:47:00,18.5,6.3,30.16,SSE,159,1.0,8.0,58,0.00,,,0.00,HR-IXPWINDi_r2_v1.2.,2013-02-17 19:47:00,
2013-02-17 13:52:00,18.5,5.5,30.16,SSE,160,5.0,8.0,56,0.00,,,0.00,HR-IXPWINDi_r2_v1.2.,2013-02-17 19:52:00,
2013-02-17 13:57:00,18.6,5.6,30.16,South,171,0.0,8.0,56,0.00,,,0.00,HR-IXPWINDi_r2_v1.2.,2013-02-17 19:57:00,
2013-02-17 14:03:00,18.8,7.3,30.16,South,171,0.0,8.0,60,0.00,,,0.00,HR-IXPWINDi_r2_v1.2.,2013-02-17 20:03:00,
2013-02-17 14:08:00,18.8,6.9,30.16,South,171,0.0,2.0,59,0.00,,,0.00,HR-IXPWINDi_r2_v1.2.,2013-02-17 20:08:00,
2013-02-17 14:13:00,18.8,6.2,30.15,South,170,0.0,5.0,57,0.00,,,0.00,HR-IXPWINDi_r2_v1.2.,2013-02-17 20:13:00,
2013-02-17 14:18:00,18.8,6.9,30.15,South,170,0.0,5.0,59,0.00,,,0.00,HR-IXPWINDi_r2_v1.2.,2013-02-17 20:18:00,
2013-02-17 14:23:00,18.9,5.5,30.15,SSE,166,0.0,9.0,55,0.00,,,0.00,HR-IXPWINDi_r2_v1.2.,2013-02-17 20:23:00,
2013-02-17 14:29:00,19.1,6.0,30.15,SSE,167,0.0,9.0,56,0.00,,,0.00,HR-IXPWINDi_r2_v1.2.,2013-02-17 20:29:00,
2013-02-17 14:34:00,19.1,6.0,30.15,South,173,0.0,4.0,56,0.00,,,0.00,HR-IXPWINDi_r2_v1.2.,2013-02-17 20:34:00,
2013-02-17 14:39:00,19.1,6.8,30.14,SSE,167,0.0,7.0,58,0.00,,,0.00,HR-IXPWINDi_r2_v1.2.,2013-02-17 20:39:00,
2013-02-17 14:44:00,19.2,6.1,30.14,SSE,168,1.0,7.0,56,0.00,,,0.00,HR-IXPWINDi_r2_v1.2.,2013-02-17 20:44:00,
2013-02-17 14:50:00,19.3,6.6,30.14,SSE,168,2.0,6.0,57,0.00,,,0.00,HR-IXPWINDi_r2_v1.2.,2013-02-17 20:50:00,
2013-02-17 14:55:00,19.2,6.9,30.14,South,169,2.0,4.0,58,0.00,,,0.00,HR-IXPWINDi_r2_v1.2.,2013-02-17 20:55:00,
2013-02-17 15:00:00,19.1,7.2,30.14,South,169,0.0,4.0,59,0.00,,,0.00,HR-IXPWINDi_r2_v1.2.,2013-02-17 21:00:00,
2013-02-17 15:05:00,19.0,7.1,30.14,South,169,1.0,2.0,59,0.00,,,0.00,HR-IXPWINDi_r2_v1.2.,2013-02-17 21:05:00,
2013-02-17 15:10:00,19.2,7.3,30.14,SSE,153,1.0,2.0,59,0.00,,,0.00,HR-IXPWINDi_r2_v1.2.,2013-02-17 21:10:00,
2013-02-17 15:16:00,19.4,6.7,30.14,SSE,153,6.0,7.0,57,0.00,,,0.00,HR-IXPWINDi_r2_v1.2.,2013-02-17 21:16:00,
2013-02-17 15:21:00,19.5,7.2,30.13,SSE,153,1.0,7.0,58,0.00,,,0.00,HR-IXPWINDi_r2_v1.2.,2013-02-17 21:21:00,
2013-02-17 15:26:00,19.5,6.0,30.13,SSE,165,5.0,8.0,55,0.00,,,0.00,HR-IXPWINDi_r2_v1.2.,2013-02-17 21:26:00,
2013-02-17 15:31:00,19.6,6.1,30.13,SSE,153,5.0,8.0,55,0.00,,,0.00,HR-IXPWINDi_r2_v1.2.,2013-02-17 21:31:00,
2013-02-17 15:36:00,19.5,6.0,30.12,ESE,119,2.0,8.0,55,0.00,,,0.00,HR-IXPWINDi_r2_v1.2.,2013-02-17 21:36:00,
2013-02-17 15:41:00,19.5,6.0,30.12,ESE,118,6.0,7.0,55,0.00,,,0.00,HR-IXPWINDi_r2_v1.2.,2013-02-17 21:41:00,
2013-02-17 15:47:00,19.6,6.1,30.12,SSE,148,5.0,7.0,55,0.00,,,0.00,HR-IXPWINDi_r2_v1.2.,2013-02-17 21:47:00,
2013-02-17 15:52:00,19.4,5.9,30.12,SSE,163,2.0,7.0,55,0.00,,,0.00,HR-IXPWINDi_r2_v1.2.,2013-02-17 21:52:00,
2013-02-17 15:57:00,19.4,8.2,30.12,SSE,164,2.0,6.0,61,0.00,,,0.00,HR-IXPWINDi_r2_v1.2.,2013-02-17 21:57:00,
2013-02-17 16:02:00,19.4,6.7,30.11,SSE,155,0.0,7.0,57,0.00,,,0.00,HR-IXPWINDi_r2_v1.2.,2013-02-17 22:02:00,
2013-02-17 16:07:00,19.3,6.6,30.11,SSE,153,1.0,7.0,57,0.00,,,0.00,HR-IXPWINDi_r2_v1.2.,2013-02-17 22:07:00,
2013-02-17 16:12:00,19.2,6.5,30.11,South,174,1.0,9.0,57,0.00,,,0.00,HR-IXPWINDi_r2_v1.2.,2013-02-17 22:12:00,
2013-02-17 16:18:00,19.0,5.6,30.11,SSE,156,1.0,9.0,55,0.00,,,0.00,HR-IXPWINDi_r2_v1.2.,2013-02-17 22:18:00,
2013-02-17 16:23:00,18.8,6.5,30.11,SSE,161,2.0,7.0,58,0.00,,,0.00,HR-IXPWINDi_r2_v1.2.,2013-02-17 22:23:00,
2013-02-17 16:28:00,18.5,6.6,30.11,SE,146,1.0,5.0,59,0.00,,,0.00,HR-IXPWINDi_r2_v1.2.,2013-02-17 22:28:00,
2013-02-17 16:33:00,18.3,6.1,30.11,SSE,148,1.0,5.0,58,0.00,,,0.00,HR-IXPWINDi_r2_v1.2.,2013-02-17 22:33:00,
2013-02-17 16:38:00,18.1,5.9,30.12,SSE,160,1.0,3.0,58,0.00,,,0.00,HR-IXPWINDi_r2_v1.2.,2013-02-17 22:38:00,
2013-02-17 16:43:00,18.0,5.8,30.11,SSE,166,1.0,4.0,58,0.00,,,0.00,HR-IXPWINDi_r2_v1.2.,2013-02-17 22:43:00,
2013-02-17 16:49:00,17.9,6.4,30.12,SSE,164,1.0,4.0,60,0.00,,,0.00,HR-IXPWINDi_r2_v1.2.,2013-02-17 22:49:00,
2013-02-17 16:54:00,17.7,5.9,30.11,SSE,155,0.0,2.0,59,0.00,,,0.00,HR-IXPWINDi_r2_v1.2.,2013-02-17 22:54:00,
2013-02-17 16:59:00,17.6,5.4,30.11,SSE,155,1.0,2.0,58,0.00,,,0.00,HR-IXPWINDi_r2_v1.2.,2013-02-17 22:59:00,
2013-02-17 17:04:00,17.6,6.1,30.12,SSE,156,1.0,2.0,60,0.00,,,0.00,HR-IXPWINDi_r2_v1.2.,2013-02-17 23:04:00,
2013-02-17 17:10:00,17.3,7.3,30.12,SSE,155,0.0,2.0,64,0.00,,,0.00,HR-IXPWINDi_r2_v1.2.,2013-02-17 23:10:00,
2013-02-17 17:15:00,17.0,6.3,30.12,SSE,155,2.0,2.0,62,0.00,,,0.00,HR-IXPWINDi_r2_v1.2.,2013-02-17 23:15:00,
2013-02-17 17:20:00,17.0,6.3,30.11,SSE,156,0.0,2.0,62,0.00,,,0.00,HR-IXPWINDi_r2_v1.2.,2013-02-17 23:20:00,
2013-02-17 17:25:00,17.0,5.6,30.10,SSE,155,5.0,7.0,60,0.00,,,0.00,HR-IXPWINDi_r2_v1.2.,2013-02-17 23:25:00,
2013-02-17 17:30:00,17.1,6.4,30.10,SSE,163,0.0,7.0,62,0.00,,,0.00,HR-IXPWINDi_r2_v1.2.,2013-02-17 23:30:00,
2013-02-17 17:35:00,17.0,5.6,30.10,SSE,163,0.0,7.0,60,0.00,,,0.00,HR-IXPWINDi_r2_v1.2.,2013-02-17 23:35:00,
2013-02-17 17:41:00,17.0,5.6,30.10,South,173,1.0,6.0,60,0.00,,,0.00,HR-IXPWINDi_r2_v1.2.,2013-02-17 23:41:00,
2013-02-17 17:46:00,16.9,5.8,30.10,SSE,149,0.0,6.0,61,0.00,,,0.00,HR-IXPWINDi_r2_v1.2.,2013-02-17 23:46:00,
2013-02-17 17:51:00,16.9,5.8,30.10,South,173,0.0,5.0,61,0.00,,,0.00,HR-IXPWINDi_r2_v1.2.,2013-02-17 23:51:00,
2013-02-17 17:56:00,16.9,5.8,30.10,SSE,153,1.0,5.0,61,0.00,,,0.00,HR-IXPWINDi_r2_v1.2.,2013-02-17 23:56:00,
2013-02-17 18:02:00,16.8,6.1,30.09,SE,144,1.0,6.0,62,0.00,,,0.00,HR-IXPWINDi_r2_v1.2.,2013-02-18 00:02:00,
2013-02-17 18:07:00,16.8,6.1,30.09,SSE,156,0.0,6.0,62,0.00,,,0.00,HR-IXPWINDi_r2_v1.2.,2013-02-18 00:07:00,
2013-02-17 18:12:00,16.8,5.8,30.09,SSE,155,1.0,5.0,61,0.00,,,0.00,HR-IXPWINDi_r2_v1.2.,2013-02-18 00:12:00,
2013-02-17 18:17:00,16.8,6.5,30.09,SSE,157,0.0,5.0,63,0.00,,,0.00,HR-IXPWINDi_r2_v1.2.,2013-02-18 00:17:00,
2013-02-17 18:22:00,16.8,6.1,30.09,SSE,152,1.0,5.0,62,0.00,,,0.00,HR-IXPWINDi_r2_v1.2.,2013-02-18 00:22:00,
2013-02-17 18:27:00,16.8,6.5,30.09,SSE,151,1.0,4.0,63,0.00,,,0.00,HR-IXPWINDi_r2_v1.2.,2013-02-18 00:27:00,
2013-02-17 18:33:00,16.8,6.5,30.09,SSE,149,0.0,6.0,63,0.00,,,0.00,HR-IXPWINDi_r2_v1.2.,2013-02-18 00:33:00,
2013-02-17 18:38:00,16.7,6.7,30.09,SSE,152,1.0,6.0,64,0.00,,,0.00,HR-IXPWINDi_r2_v1.2.,2013-02-18 00:38:00,
2013-02-17 18:43:00,16.7,7.0,30.08,SSE,157,2.0,5.0,65,0.00,,,0.00,HR-IXPWINDi_r2_v1.2.,2013-02-18 00:43:00,
2013-02-17 18:48:00,16.7,6.7,30.08,SSE,149,1.0,5.0,64,0.00,,,0.00,HR-IXPWINDi_r2_v1.2.,2013-02-18 00:48:00,
2013-02-17 18:53:00,16.6,6.6,30.08,South,175,2.0,7.0,64,0.00,,,0.00,HR-IXPWINDi_r2_v1.2.,2013-02-18 00:53:00,
2013-02-17 18:58:00,16.6,5.9,30.08,SSE,153,1.0,7.0,62,0.00,,,0.00,HR-IXPWINDi_r2_v1.2.,2013-02-18 00:58:00,
2013-02-17 19:04:00,16.5,5.8,30.08,SSE,152,1.0,8.0,62,0.00,,,0.00,HR-IXPWINDi_r2_v1.2.,2013-02-18 01:04:00,
2013-02-17 19:09:00,16.5,5.8,30.08,SSE,156,5.0,8.0,62,0.00,,,0.00,HR-IXPWINDi_r2_v1.2.,2013-02-18 01:09:00,
2013-02-17 19:14:00,16.3,6.0,30.08,SE,146,4.0,7.0,63,0.00,,,0.00,HR-IXPWINDi_r2_v1.2.,2013-02-18 01:14:00,
2013-02-17 19:19:00,16.1,6.1,30.08,SSE,157,1.0,7.0,64,0.00,,,0.00,HR-IXPWINDi_r2_v1.2.,2013-02-18 01:19:00,
2013-02-17 19:25:00,16.0,6.4,30.08,SSE,161,5.0,8.0,65,0.00,,,0.00,HR-IXPWINDi_r2_v1.2.,2013-02-18 01:25:00,
2013-02-17 19:30:00,15.8,5.9,30.08,SSE,150,2.0,8.0,64,0.00,,,0.00,HR-IXPWINDi_r2_v1.2.,2013-02-18 01:30:00,
2013-02-17 19:35:00,15.7,6.1,30.07,SSE,164,4.0,9.0,65,0.00,,,0.00,HR-IXPWINDi_r2_v1.2.,2013-02-18 01:35:00,
2013-02-17 19:40:00,15.5,6.2,30.07,SSE,155,6.0,9.0,66,0.00,,,0.00,HR-IXPWINDi_r2_v1.2.,2013-02-18 01:40:00,
2013-02-17 19:45:00,15.3,6.1,30.07,SE,138,6.0,9.0,66,0.00,,,0.00,HR-IXPWINDi_r2_v1.2.,2013-02-18 01:45:00,
2013-02-17 19:51:00,15.2,5.6,30.07,SSE,161,5.0,11.0,65,0.00,,,0.00,HR-IXPWINDi_r2_v1.2.,2013-02-18 01:51:00,
2013-02-17 19:56:00,15.1,5.5,30.07,SSE,157,2.0,11.0,65,0.00,,,0.00,HR-IXPWINDi_r2_v1.2.,2013-02-18 01:56:00,
2013-02-17 20:01:00,15.1,5.9,30.07,SSE,158,0.0,8.0,66,0.00,,,0.00,HR-IXPWINDi_r2_v1.2.,2013-02-18 02:01:00,
2013-02-17 20:07:00,14.9,5.7,30.07,SSE,148,1.0,7.0,66,0.00,,,0.00,HR-IXPWINDi_r2_v1.2.,2013-02-18 02:07:00,
2013-02-17 20:12:00,14.8,5.2,30.07,SSE,161,2.0,8.0,65,0.00,,,0.00,HR-IXPWINDi_r2_v1.2.,2013-02-18 02:12:00,
2013-02-17 20:17:00,14.7,5.1,30.07,SSE,157,1.0,9.0,65,0.00,,,0.00,HR-IXPWINDi_r2_v1.2.,2013-02-18 02:17:00,
2013-02-17 20:22:00,14.6,5.1,30.07,South,169,2.0,9.0,65,0.00,,,0.00,HR-IXPWINDi_r2_v1.2.,2013-02-18 02:22:00,
2013-02-17 20:27:00,14.6,5.1,30.07,SE,136,8.0,8.0,65,0.00,,,0.00,HR-IXPWINDi_r2_v1.2.,2013-02-18 02:27:00,
2013-02-17 20:33:00,14.5,4.6,30.07,SE,144,4.0,8.0,64,0.00,,,0.00,HR-IXPWINDi_r2_v1.2.,2013-02-18 02:33:00,
2013-02-17 20:38:00,14.4,4.9,30.07,SSE,153,2.0,10.0,65,0.00,,,0.00,HR-IXPWINDi_r2_v1.2.,2013-02-18 02:38:00,
2013-02-17 20:43:00,14.4,4.9,30.06,SSE,153,1.0,10.0,65,0.00,,,0.00,HR-IXPWINDi_r2_v1.2.,2013-02-18 02:43:00,
2013-02-17 20:48:00,14.4,4.9,30.06,SSE,153,6.0,9.0,65,0.00,,,0.00,HR-IXPWINDi_r2_v1.2.,2013-02-18 02:48:00,
2013-02-17 20:53:00,14.4,4.9,30.06,SSE,158,2.0,9.0,65,0.00,,,0.00,HR-IXPWINDi_r2_v1.2.,2013-02-18 02:53:00,
2013-02-17 20:58:00,14.4,4.9,30.06,SSE,157,5.0,9.0,65,0.00,,,0.00,HR-IXPWINDi_r2_v1.2.,2013-02-18 02:58:00,
2013-02-17 21:03:00,14.4,4.9,30.05,SE,141,2.0,9.0,65,0.00,,,0.00,HR-IXPWINDi_r2_v1.2.,2013-02-18 03:03:00,
2013-02-17 21:08:00,14.3,5.1,30.05,SSE,167,2.0,9.0,66,0.00,,,0.00,HR-IXPWINDi_r2_v1.2.,2013-02-18 03:08:00,
2013-02-17 21:13:00,14.3,5.1,30.05,SSE,160,1.0,8.0,66,0.00,,,0.00,HR-IXPWINDi_r2_v1.2.,2013-02-18 03:13:00,
2013-02-17 21:18:00,14.3,5.1,30.05,SE,146,1.0,9.0,66,0.00,,,0.00,HR-IXPWINDi_r2_v1.2.,2013-02-18 03:18:00,
2013-02-17 21:23:00,14.2,5.3,30.05,ESE,121,7.0,9.0,67,0.00,,,0.00,HR-IXPWINDi_r2_v1.2.,2013-02-18 03:23:00,
2013-02-17 21:29:00,14.3,5.4,30.05,South,170,6.0,9.0,67,0.00,,,0.00,HR-IXPWINDi_r2_v1.2.,2013-02-18 03:29:00,
2013-02-17 21:34:00,14.3,5.7,30.05,SSE,153,6.0,9.0,68,0.00,,,0.00,HR-IXPWINDi_r2_v1.2.,2013-02-18 03:34:00,
2013-02-17 21:39:00,14.3,5.7,30.05,South,175,2.0,9.0,68,0.00,,,0.00,HR-IXPWINDi_r2_v1.2.,2013-02-18 03:39:00,
2013-02-17 21:44:00,14.3,5.7,30.05,SSE,162,2.0,9.0,68,0.00,,,0.00,HR-IXPWINDi_r2_v1.2.,2013-02-18 03:44:00,
2013-02-17 21:49:00,14.3,5.7,30.05,SSE,161,1.0,9.0,68,0.00,,,0.00,HR-IXPWINDi_r2_v1.2.,2013-02-18 03:49:00,
2013-02-17 21:54:00,14.3,5.7,30.05,SSE,156,7.0,9.0,68,0.00,,,0.00,HR-IXPWINDi_r2_v1.2.,2013-02-18 03:54:00,
2013-02-17 21:59:00,14.3,6.1,30.04,South,182,1.0,9.0,69,0.00,,,0.00,HR-IXPWINDi_r2_v1.2.,2013-02-18 03:59:00,
2013-02-17 22:04:00,14.3,6.1,30.04,South,172,5.0,9.0,69,0.00,,,0.00,HR-IXPWINDi_r2_v1.2.,2013-02-18 04:04:00,
2013-02-17 22:10:00,14.4,6.2,30.04,South,174,5.0,9.0,69,0.00,,,0.00,HR-IXPWINDi_r2_v1.2.,2013-02-18 04:10:00,
2013-02-17 22:15:00,14.4,6.2,30.04,South,180,2.0,10.0,69,0.00,,,0.00,HR-IXPWINDi_r2_v1.2.,2013-02-18 04:15:00,
2013-02-17 22:20:00,14.4,6.5,30.04,South,169,1.0,10.0,70,0.00,,,0.00,HR-IXPWINDi_r2_v1.2.,2013-02-18 04:20:00,
2013-02-17 22:25:00,14.5,6.6,30.03,SSE,167,4.0,10.0,70,0.00,,,0.00,HR-IXPWINDi_r2_v1.2.,2013-02-18 04:25:00,
2013-02-17 22:30:00,14.6,6.7,30.03,SSE,163,0.0,10.0,70,0.00,,,0.00,HR-IXPWINDi_r2_v1.2.,2013-02-18 04:30:00,
2013-02-17 22:35:00,14.7,6.8,30.03,South,184,1.0,10.0,70,0.00,,,0.00,HR-IXPWINDi_r2_v1.2.,2013-02-18 04:35:00,
2013-02-17 22:41:00,14.8,6.9,30.03,South,182,3.0,10.0,70,0.00,,,0.00,HR-IXPWINDi_r2_v1.2.,2013-02-18 04:41:00,
2013-02-17 22:46:00,14.8,7.2,30.03,SSE,163,2.0,8.0,71,0.00,,,0.00,HR-IXPWINDi_r2_v1.2.,2013-02-18 04:46:00,
2013-02-17 22:52:00,14.9,7.3,30.03,South,175,1.0,7.0,71,0.00,,,0.00,HR-IXPWINDi_r2_v1.2.,2013-02-18 04:52:00,
2013-02-17 22:57:00,14.9,7.3,30.03,SSE,165,0.0,7.0,71,0.00,,,0.00,HR-IXPWINDi_r2_v1.2.,2013-02-18 04:57:00,
2013-02-17 23:00:00,15.0,7.4,30.03,SSE,166,0.0,7.0,71,0.00,,,0.00,HR-IXPWINDi_r2_v1.2.,2013-02-18 05:00:00,
2013-02-17 23:05:00,15.0,7.4,30.02,SSE,160,1.0,7.0,71,0.00,,,0.00,HR-IXPWINDi_r2_v1.2.,2013-02-18 05:05:00,
2013-02-17 23:10:00,15.1,7.8,30.02,SSE,159,0.0,8.0,72,0.00,,,0.00,HR-IXPWINDi_r2_v1.2.,2013-02-18 05:10:00,
2013-02-17 23:15:00,15.2,7.9,30.02,SSW,195,4.0,8.0,72,0.00,,,0.00,HR-IXPWINDi_r2_v1.2.,2013-02-18 05:15:00,
2013-02-17 23:20:00,15.3,8.0,30.02,SSE,152,4.0,8.0,72,0.00,,,0.00,HR-IXPWINDi_r2_v1.2.,2013-02-18 05:20:00,
2013-02-17 23:26:00,15.5,8.2,30.02,SSE,157,2.0,8.0,72,0.00,,,0.00,HR-IXPWINDi_r2_v1.2.,2013-02-18 05:26:00,
2013-02-17 23:31:00,15.7,8.3,30.02,SSE,156,4.0,9.0,72,0.00,,,0.00,HR-IXPWINDi_r2_v1.2.,2013-02-18 05:31:00,
2013-02-17 23:36:00,15.8,8.4,30.01,SSE,161,4.0,10.0,72,0.00,,,0.00,HR-IXPWINDi_r2_v1.2.,2013-02-18 05:36:00,
2013-02-17 23:41:00,15.9,8.8,30.02,SSE,167,1.0,10.0,73,0.00,,,0.00,HR-IXPWINDi_r2_v1.2.,2013-02-18 05:41:00,
2013-02-17 23:47:00,16.1,9.0,30.02,SSE,153,1.0,6.0,73,0.00,,,0.00,HR-IXPWINDi_r2_v1.2.,2013-02-18 05:47:00,
2013-02-17 23:52:00,16.2,9.1,30.02,SSE,159,1.0,6.0,73,0.00,,,0.00,HR-IXPWINDi_r2_v1.2.,2013-02-18 05:52:00,
2013-02-17 23:57:00,16.3,9.2,30.01,SSE,161,0.0,6.0,73,0.00,,,0.00,HR-IXPWINDi_r2_v1.2.,2013-02-18 05:57:00,